Waterville, ME

2:27 PM EDT on August 23, 2017 (GMT -0400)
Waterville Lafleur

Weather History for KWVL - October, 2012

Change the Weather History Date:

Thursday, October 18, 2012

  Actual Average Record
Temperature  
Mean Temperature 54 °F -  
Max Temperature 62 °F 58 °F 82 °F (1968)
Min Temperature 46 °F 36 °F 18 °F (1981)
Degree Days  
Heating Degree Days 11    
Growing Degree Days 4 (Base 50)    
Moisture  
Dew Point 41 °F    
Average Humidity 70    
Maximum Humidity 100    
Minimum Humidity 22    
Precipitation  
Precipitation 0.00 in - - ()
Sea Level Pressure  
Sea Level Pressure 30.09 in    
Wind  
Wind Speed 4 mph (SSE)    
Max Wind Speed 7 mph    
Max Gust Speed -    
Visibility 10 miles    
Events      
Averages and records for this station are not official NWS values.
T = Trace of Precipitation, MM = Missing Value Source: NWS Daily Summary

Daily Weather History Graph

Daily Weather History Graph

Search for Another Location

Airport or City:

Trip Planner

Search our weather history database for the weather conditions in past years. The results will help you decide how hot, cold, wet, or windy it might be!

Date:

Astronomy

Oct. 18, 2012 Rise Set
Actual Time 6:58 AM EDT 5:48 PM EDT
Civil Twilight 6:28 AM EDT 6:17 PM EDT
Nautical Twilight 5:54 AM EDT 6:51 PM EDT
Astronomical Twilight 5:21 AM EDT 7:25 PM EDT
Moon 10:45 AM EDT (10/18) 8:10 PM EDT (10/18)
Length of Visible Light 11h 49m
Length of Day
10h 50m
Waxing Crescent, 14% of the Moon is Illuminated
Oct 18
Waxing Crescent
Oct 21
First Quarter
Oct 29
Full
Nov 6
Last Quarter
Nov 13
New

Hourly Weather History & Observations

Time (EDT) Temp. Dew Point Humidity Pressure Visibility Wind Dir Wind Speed Gust Speed Precip Events Conditions
2:55 PM 62.6 °F 33.8 °F 34% 30.06 in 10.0 mi SSE 5.8 mph - N/A   Clear
3:15 PM 62.6 °F 26.6 °F 26% 30.07 in 10.0 mi South 4.6 mph - N/A   Clear
3:35 PM 62.6 °F 23.0 °F 22% 30.07 in 10.0 mi SSE 6.9 mph - N/A   Clear
3:55 PM 62.6 °F 28.4 °F 27% 30.07 in 10.0 mi SSE 4.6 mph - N/A   Clear
4:15 PM 62.6 °F 30.2 °F 30% 30.07 in 10.0 mi SSE 5.8 mph - N/A   Clear
4:35 PM 60.8 °F 35.6 °F 39% 30.07 in 10.0 mi SSE 5.8 mph - N/A   Clear
4:55 PM 60.8 °F 37.4 °F 42% 30.06 in 10.0 mi SE 3.5 mph - N/A   Clear
5:15 PM 57.2 °F 37.4 °F 48% 30.06 in 10.0 mi SSE 5.8 mph - N/A   Clear
5:35 PM 55.4 °F 39.2 °F 54% 30.07 in 10.0 mi South 3.5 mph - N/A   Clear
5:55 PM 53.6 °F 39.2 °F 58% 30.08 in 10.0 mi SSE 3.5 mph - N/A   Clear
6:15 PM 53.6 °F 42.8 °F 67% 30.08 in 10.0 mi South 4.6 mph - N/A   Clear
6:35 PM 51.8 °F 44.6 °F 76% 30.09 in 10.0 mi South 3.5 mph - N/A   Clear
7:15 PM 51.8 °F 46.4 °F 82% 30.09 in 10.0 mi Calm Calm - N/A   Clear
7:35 PM 51.8 °F 46.4 °F 82% 30.09 in 10.0 mi SE 3.5 mph - N/A   Clear
7:55 PM 50.0 °F 46.4 °F 87% 30.09 in 10.0 mi Calm Calm - N/A   Clear
8:15 PM 48.2 °F 46.4 °F 93% 30.10 in 10.0 mi Calm Calm - N/A   Clear
8:35 PM 48.2 °F 46.4 °F 93% 30.10 in 10.0 mi Calm Calm - N/A   Clear
8:55 PM 48.2 °F 46.4 °F 93% 30.10 in 10.0 mi Calm Calm - N/A   Clear
9:15 PM 48.2 °F 46.4 °F 93% 30.11 in 10.0 mi Calm Calm - N/A   Clear
9:35 PM 48.2 °F 46.4 °F 93% 30.12 in 10.0 mi Calm Calm - N/A   Partly Cloudy
9:55 PM 48.2 °F 46.4 °F 93% 30.13 in 10.0 mi Calm Calm - N/A   Mostly Cloudy
10:15 PM 48.2 °F 46.4 °F 93% 30.13 in 10.0 mi Calm Calm - N/A   Overcast
10:35 PM 48.2 °F 46.4 °F 93% 30.13 in 10.0 mi Calm Calm - N/A   Overcast
11:15 PM 46.4 °F 46.4 °F 100% 30.14 in 10.0 mi Calm Calm - N/A   Scattered Clouds
11:35 PM 46.4 °F 46.4 °F 100% 30.14 in 10.0 mi Calm Calm - N/A   Mostly Cloudy
11:55 PM 46.4 °F 44.6 °F 93% 30.14 in 9.0 mi Calm Calm - N/A   Mostly Cloudy